Theta_e
319 319 319 319 318 316 316 316 317 318 318 317 315 314 314 315 315 322 324 326 328 325 326 330 335 334 335 337 342 346 358 344 343 342 342 342 348 349 348 349 348 353 354 351 349
319 319 319 318 318 318 316 316 317 317 318 317 314 314 315 315 320 324 326 323 322 322 327 331 335 336 337 340 340 344 348 342 339 340 342 343 343 351 350 353 354 354 352 350 348
319 318 318 318 318 318 318 316 316 318 318 317 314 314 315 315 331 329 324 322 321 323 327 330 333 336 338 338 339 338 340 339 337 338 340 342 342 341 348 347 352 354 352 350 348
319 318 318 318 317 318 318 316 316 318 318 316 314 315 315 325 336 333 322 320 320 323 326 331 334 337 338 337 337 338 336 335 335 335 338 341 342 340 347 348 350 352 350 350 348
318 318 318 318 317 318 319 316 317 319 319 315 315 315 321 334 334 331 321 318 320 324 332 334 337 337 337 335 337 337 336 335 334 336 338 341 340 344 347 348 352 352 351 350 349
317 317 317 317 317 318 319 316 320 319 317 315 315 315 328 335 329 329 324 321 327 329 333 336 336 335 335 336 337 335 335 335 337 337 338 345 348 347 348 348 352 354 352 350 350
317 317 316 317 317 318 318 316 320 317 315 315 316 321 329 331 329 326 326 324 327 333 336 336 334 335 335 336 334 335 335 335 337 338 342 343 345 346 347 349 351 353 353 350 348
317 316 315 316 317 318 318 317 318 315 315 316 315 326 335 327 329 325 327 326 330 334 334 334 335 336 336 335 334 337 336 335 332 331 333 341 342 338 345 349 350 351 352 351 347
317 315 314 316 317 318 318 317 317 316 316 315 323 329 332 324 326 326 326 328 330 333 334 333 335 337 337 337 338 338 337 334 334 331 334 335 342 341 337 345 349 351 351 352 350
314 312 313 315 317 318 317 319 319 318 330 326 327 330 329 326 326 327 326 329 330 333 334 335 337 338 337 337 340 340 335 333 333 331 335 340 346 347 342 340 349 351 350 352 352
311 311 312 315 317 317 317 326 331 332 332 332 329 329 328 328 327 327 327 328 329 331 333 334 337 339 337 338 335 336 331 332 333 331 331 345 349 350 343 342 345 348 350 351 352
309 310 313 316 316 316 319 330 330 329 331 332 330 326 329 328 326 326 327 327 328 330 332 335 337 337 336 335 330 332 332 333 333 332 329 346 352 351 348 346 347 348 348 349 349
309 310 313 315 316 317 325 329 329 329 330 332 329 327 328 327 327 326 327 327 328 330 331 336 336 333 334 330 329 331 332 332 332 332 331 338 357 356 349 351 351 348 346 347 348
309 311 314 315 320 326 325 328 329 329 332 332 329 327 328 326 326 327 326 327 328 328 330 332 334 333 331 329 330 331 333 331 330 331 333 332 361 347 345 351 356 354 350 344 345
312 314 315 317 316 323 330 329 329 330 342 331 327 329 328 327 327 326 326 328 327 327 328 329 330 333 331 329 330 330 331 331 332 332 332 337 350 342 348 352 356 357 355 350 346
314 315 317 322 320 321 324 326 329 332 339 329 329 327 326 328 327 327 326 328 329 328 329 329 330 330 331 330 330 329 330 331 332 333 334 332 347 347 346 352 354 357 357 356 354
315 316 319 319 327 327 325 328 333 334 332 331 330 327 328 327 327 326 326 326 328 327 327 328 328 328 328 328 330 329 331 334 340 340 336 342 342 344 338 349 350 355 357 357 357
316 318 321 321 323 324 325 331 338 330 334 333 330 326 327 328 328 327 325 326 327 327 327 327 325 327 328 328 329 331 332 334 346 341 339 351 350 352 347 347 347 349 353 355 357
319 325 324 328 323 326 328 333 334 334 332 333 331 330 327 328 329 328 326 326 327 328 328 330 335 331 332 332 332 333 336 334 336 335 336 353 350 346 347 348 347 346 346 347 349
319 328 332 329 325 326 329 330 332 332 335 335 334 332 329 329 328 328 327 328 327 328 328 331 341 338 335 332 333 333 336 337 339 341 345 351 356 352 347 349 348 347 345 344 343
323 335 331 327 326 328 327 328 331 330 332 334 335 334 332 330 329 330 328 329 329 329 330 331 333 338 337 335 334 335 336 339 339 345 355 352 360 345 344 347 347 345 344 342 341
329 336 329 326 328 328 328 328 323 329 331 330 335 336 337 334 331 330 330 332 331 333 331 331 331 334 337 337 337 338 342 342 343 351 349 346 353 345 345 347 343 342 340 338 337
333 338 329 326 329 329 328 328 329 329 329 331 331 335 335 336 339 332 335 335 333 333 335 335 334 332 334 337 342 342 341 341 340 340 346 348 362 348 340 343 342 340 339 337 336
332 337 331 328 328 331 334 330 329 329 328 332 333 333 335 337 335 332 336 335 334 333 338 334 335 338 345 346 345 343 340 340 343 340 341 344 356 350 346 345 340 338 337 336 336
333 338 336 333 329 329 331 330 331 329 327 331 333 336 336 337 342 341 335 337 335 336 336 335 335 340 345 343 340 338 340 342 347 341 339 338 338 350 347 344 339 336 334 334 334
333 335 335 336 335 334 329 331 331 331 329 329 333 333 334 340 343 343 340 340 337 337 336 335 338 336 343 341 344 344 339 341 341 337 336 337 347 346 342 338 335 334 334 334 334
327 328 334 334 335 333 333 332 331 331 330 332 334 333 334 342 337 339 337 337 335 340 338 336 337 341 343 343 345 344 340 337 337 337 338 338 342 339 337 335 335 335 334 333 330
Wind_Speed
20 21 21 21 21 21 20 20 21 19 17 13 11 10 11 11 11 9 10 5 12 8 8 13 13 13 17 14 5 3 3 8 10 15 11 9 11 10 13 11 13 13 13 23 24
21 22 22 22 22 21 21 21 21 20 17 12 10 10 10 12 11 15 15 10 10 9 10 17 10 9 11 4 1 3 2 8 5 11 12 7 9 19 6 11 15 15 17 24 23
22 23 23 23 23 22 21 23 22 20 16 10 9 9 9 9 8 9 17 13 14 12 11 19 13 15 10 5 1 4 6 8 12 7 1 12 7 10 7 13 15 15 14 18 19
22 23 23 24 24 24 24 24 23 20 13 8 8 8 9 3 2 6 11 13 14 11 12 21 17 16 6 7 2 4 5 3 2 3 5 9 6 13 14 12 15 18 14 12 10
23 23 24 24 24 24 24 25 23 15 8 5 6 7 4 7 0 4 9 13 13 10 14 18 12 5 4 3 7 10 5 2 2 1 4 4 8 12 12 16 19 17 13 11 13
23 24 24 24 25 24 25 26 20 9 5 4 5 6 5 9 5 5 12 13 12 14 16 14 6 7 7 4 6 2 3 2 0 2 9 17 30 24 10 18 18 17 16 12 12
24 25 25 25 25 24 25 24 13 6 4 3 4 3 9 7 1 5 14 16 15 15 16 5 9 12 9 8 5 12 8 8 5 1 11 18 9 3 10 16 13 15 14 11 12
24 25 26 25 24 24 24 21 9 4 3 4 4 4 8 4 3 7 14 15 15 12 13 8 6 13 10 6 11 15 11 9 6 9 6 6 10 5 6 10 13 14 13 10 10
25 27 27 25 24 23 24 16 7 5 5 4 4 7 8 7 9 12 14 14 13 13 11 5 11 15 17 15 12 7 4 6 10 4 6 7 7 7 3 8 16 16 12 11 10
25 27 27 25 23 23 23 11 9 7 7 7 13 9 9 10 12 13 13 15 13 12 11 11 10 14 13 12 6 12 3 5 6 7 2 5 8 6 8 10 10 15 13 12 12
26 27 27 24 21 24 20 6 4 6 11 11 12 12 9 8 8 10 12 11 9 12 13 14 12 15 13 11 5 6 4 6 7 6 6 6 6 6 3 1 5 9 14 16 17
26 27 25 23 22 21 10 6 8 8 9 21 17 13 4 8 9 11 13 13 14 14 14 15 15 17 8 6 3 5 8 12 6 5 8 11 12 9 7 6 7 7 7 12 15
28 27 24 23 23 13 11 16 8 11 7 14 13 12 11 9 12 13 14 16 15 15 16 17 19 13 5 5 6 10 13 3 5 4 7 9 28 17 29 5 3 1 6 9 9
28 27 24 24 10 9 15 7 6 8 5 14 13 10 12 11 11 16 16 12 8 15 15 16 17 3 7 8 9 15 1 3 7 10 12 16 7 13 29 25 8 6 1 8 9
29 28 23 17 16 9 7 6 8 8 6 16 14 14 11 16 13 13 17 13 13 12 13 14 12 11 8 12 12 13 4 8 10 10 14 5 10 3 10 19 6 9 10 7 2
30 28 23 2 8 14 13 10 10 6 8 12 10 13 15 18 9 16 14 11 12 12 10 17 5 9 10 11 13 10 11 12 15 14 13 17 10 5 6 2 7 9 12 9 13
32 26 20 10 6 4 8 7 6 10 11 12 17 16 18 13 14 12 15 14 11 8 11 12 12 11 10 12 13 11 13 12 5 12 12 19 13 8 22 7 11 11 12 14 12
31 21 11 17 9 11 9 7 9 13 14 15 13 17 16 15 15 15 15 15 17 18 10 13 14 17 14 14 14 17 16 12 7 16 14 14 12 9 14 11 13 13 13 14 16
25 5 6 7 15 9 7 10 9 10 10 7 17 17 15 16 11 14 16 16 17 17 17 9 5 9 8 12 13 17 13 13 16 10 7 9 6 10 14 11 11 12 14 14 14
13 12 13 10 12 11 8 17 18 22 12 3 11 13 15 17 12 13 17 15 17 15 15 16 5 18 10 8 12 15 11 13 9 6 4 3 10 6 11 8 9 12 11 12 13
4 5 10 11 13 7 10 17 18 6 6 10 12 12 14 13 15 13 13 13 15 10 9 13 14 5 9 9 16 3 4 6 5 7 3 3 3 12 14 27 10 10 11 9 10
9 6 10 15 8 8 12 19 11 8 5 11 17 16 22 10 17 15 14 15 11 1 9 12 15 9 17 19 7 8 8 8 4 3 6 13 2 18 25 22 11 10 10 8 8
5 5 10 14 7 11 17 21 7 7 17 9 17 13 14 3 4 17 11 9 7 8 4 6 9 10 14 6 26 10 14 14 14 9 20 2 5 17 18 11 11 10 10 5 7
5 3 6 7 12 17 17 14 13 14 19 14 12 14 15 13 8 9 15 5 8 7 4 3 13 12 4 7 1 18 20 15 17 7 8 11 21 24 18 14 11 9 6 5 4
5 7 16 7 11 14 15 13 10 14 12 12 10 16 12 13 5 12 13 14 7 6 3 6 13 1 13 8 11 20 17 12 21 16 11 16 11 20 15 11 12 9 7 5 6
7 9 11 13 9 9 5 9 15 14 12 14 13 14 18 4 12 13 17 16 9 7 10 12 12 15 13 14 10 31 23 22 27 9 7 9 16 17 15 8 8 6 7 7 9
16 14 8 11 11 10 10 13 15 16 16 10 9 16 9 4 6 16 11 14 20 4 7 11 10 8 9 11 22 20 8 3 6 4 4 4 12 12 9 7 6 6 10 9 6
Wind_Direction
1 358 356 353 351 347 344 341 338 336 331 323 317 312 311 309 300 283 248 249 210 256 256 271 238 245 243 252 250 148 251 46 23 82 75 22 90 103 43 70 53 39 115 121 141
357 356 353 352 349 345 342 339 336 334 330 320 313 311 311 315 304 256 232 243 238 257 252 260 268 223 233 200 178 160 23 73 10 53 91 76 70 87 190 113 100 89 104 122 150
353 352 350 349 347 344 339 336 334 330 326 316 307 307 311 332 271 207 202 228 235 231 260 291 283 267 246 239 199 32 59 6 76 359 37 54 50 48 125 58 96 113 129 139 158
349 348 346 346 344 341 339 335 332 328 319 310 303 304 316 283 354 121 183 212 217 225 262 269 254 260 278 99 163 128 89 80 20 268 35 84 344 69 75 67 94 113 132 133 165
346 345 343 342 341 339 337 334 330 326 313 302 298 309 322 225 6 136 190 199 210 219 252 267 301 318 18 88 211 52 36 7 118 64 58 180 68 33 99 101 99 111 118 150 180
343 342 341 340 340 337 335 334 332 325 307 294 297 317 260 255 69 138 174 185 207 215 248 264 4 321 305 345 344 109 141 64 331 28 69 49 40 326 112 109 117 133 138 168 176
341 340 339 337 337 334 334 333 332 326 301 286 290 317 260 277 3 165 177 196 211 223 253 244 322 294 300 232 125 244 158 132 59 194 82 97 107 105 124 124 136 136 148 155 154
339 337 337 335 334 332 332 328 322 310 285 283 269 256 275 154 207 188 182 194 215 227 273 9 277 290 291 310 224 233 209 125 91 0 137 133 100 57 141 148 153 136 139 156 154
338 336 335 333 332 328 329 318 302 285 278 269 260 222 251 159 206 202 197 204 206 223 237 294 264 267 270 241 246 307 190 87 125 125 335 28 33 8 213 188 169 139 155 159 162
337 335 333 331 330 326 326 308 283 273 289 250 271 261 237 222 194 187 204 226 201 217 221 228 240 247 247 249 204 213 237 168 127 86 92 40 76 7 297 183 161 141 166 165 165
336 334 332 330 326 326 323 297 213 203 223 242 149 242 144 121 121 212 194 207 218 217 218 207 234 241 251 322 91 220 15 273 133 121 243 105 84 36 344 282 162 165 171 173 179
336 332 332 328 322 318 297 253 48 339 289 220 252 237 294 156 193 207 182 200 205 210 217 222 225 256 14 37 272 239 251 251 127 120 250 131 98 64 34 23 5 330 181 191 188
336 331 330 325 317 294 237 285 323 325 272 252 207 221 205 220 231 183 189 208 194 222 204 238 221 216 38 197 225 229 250 50 333 272 245 174 45 340 4 32 104 332 294 297 258
334 330 329 325 310 322 268 236 282 314 275 182 194 211 179 210 224 167 198 202 216 214 228 228 256 175 232 249 254 271 81 18 271 254 260 202 120 22 353 320 20 42 26 190 259
333 328 323 323 301 279 0 310 323 271 277 135 161 141 178 210 132 172 196 225 263 224 212 223 228 219 217 237 243 275 3 293 274 261 273 141 96 265 198 272 58 58 40 32 195
332 326 316 331 252 264 290 298 275 235 255 157 143 184 173 222 191 151 190 244 257 250 244 259 208 263 243 232 251 275 287 270 253 249 247 241 116 236 227 66 91 68 70 46 47
329 320 297 261 227 330 287 257 224 243 144 156 165 177 186 195 183 166 193 203 220 210 216 229 251 212 254 265 244 235 250 255 358 293 262 117 98 191 226 219 119 100 74 78 61
327 306 279 246 257 266 258 229 248 227 236 133 162 175 199 193 187 183 192 214 228 238 220 208 214 216 202 226 253 230 246 269 151 285 246 36 123 133 182 131 115 106 89 72 66
330 284 223 257 214 232 231 224 227 267 298 154 174 176 205 201 219 187 212 216 217 228 257 277 351 172 220 204 227 254 264 288 295 277 265 115 96 224 136 140 122 100 95 86 81
322 271 241 161 172 201 230 245 268 308 321 217 204 192 208 199 207 184 201 221 237 210 247 275 182 209 212 252 250 265 327 310 351 337 4 88 76 9 337 300 131 110 98 93 85
257 238 128 162 174 217 229 236 238 262 297 305 282 215 228 204 193 211 228 223 219 191 247 275 296 142 35 254 246 150 324 357 339 40 101 335 138 141 286 273 148 114 99 76 78
288 266 151 164 198 223 239 248 271 278 200 263 282 293 259 237 190 238 222 194 193 321 207 246 276 269 208 236 153 177 165 167 134 141 228 240 118 179 191 238 134 117 98 85 68
274 260 165 198 231 227 223 252 271 268 253 228 251 270 298 299 154 231 126 89 118 184 328 295 239 264 263 202 7 338 25 352 278 152 212 105 101 231 218 161 138 120 118 100 79
276 223 156 209 255 286 287 224 237 234 273 298 258 255 254 266 252 213 121 136 168 180 42 307 277 324 72 113 179 295 331 5 315 315 14 141 150 182 179 163 137 117 116 101 103
243 286 349 183 216 236 265 294 284 252 210 257 263 272 262 253 53 329 242 146 191 97 205 245 261 338 160 145 205 253 270 59 310 305 325 343 13 158 160 141 120 142 120 68 34
333 343 338 307 308 296 250 257 268 275 225 220 235 239 257 24 66 38 8 19 190 152 217 238 255 266 169 146 148 276 225 213 223 291 311 341 81 93 100 121 148 117 72 39 35
6 340 310 293 276 258 244 237 248 249 259 203 242 251 271 98 126 137 158 23 315 35 263 241 283 330 318 231 168 227 268 297 319 58 38 345 80 112 127 125 82 57 56 51 20